Location: Newark
(51.4833°N, 7.2167°E)
Time: 21:13:42
(UTC+00:00)

Envisat - Visible Passes

Search period start: 11 December 2019 00:00
Search period end: 21 December 2019 00:00
Orbit: 764 x 766 km, 98.1° (Epoch: 11 December)

Date Brightness Start Highest point End Pass type
(mag) Time Alt. Az. Time Alt. Az. Time Alt. Az.
11 Dec 4.9 05:42:54 10° NNE 05:47:31 33° E 05:52:06 10° SSE visible
11 Dec 2.9 17:02:31 10° SSE 17:07:35 73° ENE 17:12:40 10° N visible
11 Dec 5.6 18:43:36 10° SW 18:47:10 19° W 18:50:45 10° NW visible
12 Dec 5.9 05:07:00 10° NE 05:10:21 17° E 05:13:41 10° SE visible
12 Dec 3.0 06:44:54 10° NNE 06:50:00 79° WNW 06:55:05 10° SSW visible
12 Dec 3.4 16:26:17 10° SE 16:30:57 38° ENE 16:35:39 10° N visible
12 Dec 4.5 18:05:21 10° SSW 18:10:01 36° W 18:14:44 10° NNW visible
13 Dec 3.9 06:08:10 10° NNE 06:13:10 53° E 06:18:08 10° S visible
13 Dec 3.2 17:28:00 10° S 17:33:04 72° WSW 17:38:11 10° NNW visible
13 Dec 6.1 19:11:21 10° WSW 19:13:03 12° W 19:14:45 10° WNW visible
14 Dec 5.2 05:31:48 10° NE 05:36:09 28° E 05:40:28 10° SSE visible
14 Dec 3.0 16:51:20 10° SSE 16:56:19 60° ENE 17:01:21 10° N visible
14 Dec 5.3 18:31:45 10° SW 18:35:45 23° W 18:39:47 10° NW visible
15 Dec 6.0 04:56:14 10° NE 04:58:55 14° E 05:01:35 10° ESE visible
15 Dec 3.1 06:33:36 10° NNE 06:38:44 86° ESE 06:43:49 10° SSW visible
15 Dec 3.7 16:15:17 10° SE 16:19:45 32° ENE 16:24:15 10° N visible
15 Dec 4.1 17:53:49 10° S 17:58:40 44° W 18:03:33 10° NNW visible
16 Dec 4.3 05:56:58 10° NNE 06:01:50 44° E 06:06:41 10° S visible
16 Dec 3.0 17:16:41 10° SSE 17:21:47 87° WSW 17:26:54 10° NNW visible
16 Dec 5.9 18:58:52 10° WSW 19:01:35 14° W 19:04:19 10° NW visible
17 Dec 5.5 05:20:45 10° NE 05:24:45 23° E 05:28:44 10° SE visible
17 Dec 3.2 16:40:12 10° SE 16:45:05 50° ENE 16:50:00 10° N visible
17 Dec 5.0 18:20:01 10° SSW 18:24:21 28° W 18:28:43 10° NW visible
18 Dec 6.2 04:45:50 10° ENE 04:47:27 11° E 04:49:04 10° ESE visible
18 Dec 3.4 06:22:20 10° NNE 06:27:26 71° ESE 06:32:30 10° S visible
18 Dec 3.9 16:04:21 10° ESE 16:08:34 27° ENE 16:12:49 10° N visible
18 Dec 3.7 17:42:22 10° S 17:47:20 54° W 17:52:20 10° NNW visible
19 Dec 4.7 05:45:47 10° NNE 05:50:29 36° E 05:55:09 10° SSE visible
19 Dec 2.9 17:05:26 10° SSE 17:10:30 78° ENE 17:15:37 10° NNW visible
19 Dec 5.7 18:46:46 10° SW 18:50:09 18° W 18:53:32 10° NW visible
20 Dec 5.8 05:09:47 10° NE 05:13:20 19° E 05:16:53 10° SE visible
20 Dec 3.0 06:47:50 10° NNE 06:52:56 74° WNW 06:58:00 10° SSW visible
20 Dec 3.4 16:29:08 10° SE 16:33:51 41° ENE 16:38:37 10° N visible
20 Dec 4.7 18:08:23 10° SSW 18:12:59 34° W 18:17:36 10° NNW visible
